Volver al catálogo

STARLINK-5076

ActivoComunicacionesVLEO
NORAD 55401·PAYLOAD·🇺🇸 United States

Lanzado Jan 31, 2023 desde Vandenberg Space Force Base

Loading…

Próximos Pases (próximas 24 horas)

TLE

ActualizadoSource: CelesTrak SupGP

Época: Sep 15, 2026, 01:32 UTC

1 55401C 23014L   26258.06437500  .00054183  00000+0  45407-2 0  2583
2 55401  69.9997 306.9138 0003800 266.4105  87.5354 14.98301799    15

Sigue STARLINK-5076 en tiempo real con AllMySat

Download on the App Store